Probability
0 0 3 6 6 3 0 0 0 0 0 3 3 6 19 32 26 45 42 39 52 58 71 84 84 84 84 81 81 81 81 81 84 77 77 74 77 77 84 84 84 87 81 74 68 65 61 58 61
0 0 3 3 3 0 0 0 0 0 3 3 3 13 26 19 26 39 42 45 52 65 68 74 84 81 81 81 77 77 81 84 74 77 81 74 77 77 84 81 77 71 68 68 68 65 65 65 68
0 0 0 0 0 0 0 0 0 0 0 0 6 10 19 16 26 45 42 39 55 61 71 77 81 81 77 77 74 77 77 74 71 68 71 71 68 71 74 74 71 71 68 61 58 58 58 61 52
0 0 0 0 0 0 0 0 0 0 3 3 3 16 16 23 26 39 39 45 55 58 65 71 74 74 71 71 74 74 81 74 71 71 74 74 68 71 68 61 65 65 65 61 58 52 52 45 55
0 0 0 0 0 0 0 0 0 0 0 0 13 13 23 35 29 35 39 45 45 55 68 71 74 74 71 71 65 68 71 65 61 68 71 68 68 68 61 61 65 65 58 55 55 55 55 61 55
0 0 0 0 0 0 0 0 0 3 0 3 10 16 23 35 35 35 42 42 45 55 61 68 74 74 71 71 68 68 68 65 68 68 71 68 68 68 61 61 58 58 55 52 42 48 55 61 58
0 0 0 0 0 0 0 0 0 0 6 6 6 10 29 32 39 35 42 45 45 55 55 61 68 74 71 74 71 68 65 68 68 68 61 65 68 55 55 52 55 52 52 52 45 48 48 45 45
0 0 0 0 0 0 0 0 0 3 6 0 3 10 32 39 35 32 35 42 45 48 55 42 55 58 58 71 74 74 65 68 68 61 61 61 61 55 52 52 55 48 48 52 48 48 48 45 45
0 0 0 0 0 3 3 0 0 3 3 0 6 19 29 35 32 32 39 42 39 42 42 48 48 58 48 45 61 68 65 68 71 65 61 58 52 45 61 48 58 48 48 45 42 48 48 52 52
0 0 0 0 0 3 0 0 0 0 3 6 10 23 29 39 35 39 35 35 48 42 42 45 45 52 45 45 55 68 58 65 58 58 65 65 68 65 55 61 61 58 55 48 48 55 52 42 39
0 0 0 0 0 3 0 0 0 0 0 10 19 23 35 39 42 45 42 39 42 39 45 48 48 58 58 55 52 58 65 68 65 68 71 71 71 65 61 58 58 58 58 55 58 48 39 35 39
0 0 0 0 0 0 0 0 0 0 3 16 13 23 29 39 39 45 42 45 48 55 52 45 52 58 61 65 58 68 65 68 65 68 68 68 61 65 61 65 58 58 55 52 48 45 35 35 29
0 3 0 0 0 0 0 3 0 3 10 19 26 32 32 39 35 45 48 45 48 55 52 48 52 58 65 68 65 58 68 61 61 68 61 58 61 58 58 55 52 52 52 52 42 35 26 26 26
0 0 0 0 0 3 3 0 0 3 16 13 23 29 32 35 32 42 48 48 45 45 48 52 48 58 61 61 61 61 55 61 58 52 58 61 55 55 58 52 48 48 48 39 35 32 32 29 29
0 0 0 0 0 3 0 0 0 6 6 10 23 23 32 32 32 39 45 42 45 45 48 55 52 58 55 55 52 48 48 52 58 58 52 55 52 55 48 45 52 52 42 42 42 42 39 32 23
0 0 0 0 0 3 0 0 0 3 6 10 16 16 32 26 29 35 39 39 42 42 48 55 39 45 58 52 52 48 48 52 48 55 55 48 52 48 42 39 45 42 45 42 42 39 29 29 26
0 0 0 0 0 0 0 0 6 6 6 6 13 16 26 26 35 39 39 42 42 45 48 45 45 48 55 48 45 45 48 48 39 45 52 42 42 39 45 42 45 45 45 39 32 32 32 26 29
0 0 0 0 0 0 0 3 3 6 3 6 16 16 29 35 35 39 42 39 45 45 55 52 42 39 45 42 45 52 45 42 39 39 39 42 48 42 39 35 45 39 39 35 29 29 29 26 26
0 0 0 0 0 0 0 3 3 6 3 6 6 16 23 32 35 39 42 39 42 45 45 48 42 48 42 42 35 45 42 42 35 29 26 42 45 39 32 29 35 29 32 29 26 29 26 26 23
0 0 0 0 0 0 0 0 3 3 10 10 13 13 16 32 32 42 39 39 39 42 45 42 42 48 48 48 48 42 39 35 29 32 29 32 35 39 19 26 23 26 26 26 29 29 19 19 19
0 0 0 0 0 0 0 0 3 3 6 10 10 10 10 19 42 39 32 32 32 39 42 35 45 48 48 48 45 42 42 32 29 29 26 29 19 19 26 23 19 19 19 23 23 26 16 13 16
0 0 0 0 0 0 0 0 6 10 10 13 10 6 10 16 26 35 32 32 35 32 35 42 45 45 45 45 45 39 32 26 29 23 23 26 16 19 16 13 16 19 19 16 19 13 13 13 13
0 0 0 0 0 0 0 0 0 10 6 10 10 6 10 19 26 32 35 32 35 35 39 35 39 39 35 42 42 42 35 29 26 26 26 32 26 26 13 16 29 19 19 16 10 13 13 16 16
3 0 0 0 0 0 0 0 0 3 6 10 10 10 16 23 23 26 32 35 35 35 35 35 39 35 35 35 32 39 35 23 23 29 23 29 32 26 19 23 32 26 23 19 19 19 16 13 16
0 0 0 0 0 0 0 0 6 6 6 3 13 13 16 16 23 29 29 32 32 39 35 29 32 35 32 32 32 32 35 32 23 26 19 26 23 23 29 16 26 26 26 19 23 26 23 16 16
0 0 0 0 0 0 0 3 6 0 6 6 10 13 16 16 23 23 29 32 32 32 32 19 29 32 26 26 26 32 32 26 23 29 23 23 26 26 19 26 23 19 16 16 23 19 13 13 13
0 0 0 0 0 0 0 3 3 3 6 3 10 6 16 19 19 19 23 29 32 35 29 23 23 23 23 23 23 29 29 23 23 26 32 32 32 19 16 16 13 13 13 13 13 16 16 10 6
0 0 0 0 3 0 0 0 6 6 3 6 10 13 19 26 19 23 26 26 26 29 29 29 19 16 16 23 26 16 23 23 23 19 29 29 26 16 10 10 6 10 10 10 16 19 13 6 3
0 0 0 0 0 0 0 0 6 13 13 10 10 16 16 23 23 26 29 26 29 26 23 19 16 19 16 16 13 23 16 16 19 23 16 19 19 10 6 13 6 6 6 6 6 10 6 3 3
0 0 0 3 0 0 0 0 3 10 6 10 16 13 16 26 26 23 23 23 23 23 26 13 16 13 10 10 16 19 19 13 19 16 16 16 13 10 6 6 3 6 6 6 3 0 0 0 0
Height
5884 5885 5886 5887 5888 5888 5889 5890 5889 5888 5886 5886 5885 5885 5884 5884 5884 5885 5882 5880 5881 5880 5880 5880 5879 5879 5878 5878 5878 5878 5877 5877 5877 5877 5877 5876 5876 5876 5876 5876 5875 5875 5875 5875 5874 5874 5874 5874 5874
5883 5884 5885 5886 5886 5887 5889 5888 5887 5886 5885 5884 5883 5883 5882 5881 5881 5881 5880 5879 5880 5879 5878 5878 5877 5877 5876 5876 5876 5876 5875 5875 5875 5875 5875 5875 5874 5874 5874 5873 5873 5873 5873 5872 5872 5872 5872 5872 5872
5882 5883 5884 5884 5885 5886 5887 5886 5885 5884 5883 5882 5882 5881 5880 5880 5879 5879 5878 5878 5878 5877 5876 5876 5875 5875 5874 5873 5873 5873 5873 5873 5873 5872 5872 5872 5872 5872 5871 5871 5871 5870 5870 5870 5870 5870 5870 5869 5869
5881 5882 5883 5884 5884 5885 5885 5884 5883 5882 5881 5880 5879 5879 5878 5878 5877 5877 5876 5876 5875 5875 5874 5873 5873 5872 5872 5871 5871 5871 5870 5870 5870 5870 5870 5870 5869 5869 5869 5868 5868 5867 5867 5867 5867 5867 5866 5866 5867
5879 5880 5881 5882 5884 5885 5884 5883 5882 5880 5880 5878 5877 5876 5875 5875 5875 5874 5874 5874 5873 5873 5872 5871 5870 5870 5870 5869 5869 5868 5868 5867 5867 5867 5867 5867 5866 5866 5865 5865 5864 5864 5864 5864 5864 5864 5863 5863 5863
5877 5878 5880 5881 5883 5883 5882 5881 5879 5878 5877 5876 5875 5873 5872 5871 5872 5872 5871 5871 5870 5870 5869 5868 5868 5867 5867 5867 5866 5866 5865 5865 5864 5864 5864 5863 5863 5863 5862 5862 5861 5861 5861 5860 5860 5860 5860 5860 5860
5876 5876 5878 5881 5882 5882 5880 5877 5877 5875 5874 5873 5872 5871 5870 5869 5869 5869 5868 5868 5867 5867 5866 5866 5865 5864 5864 5863 5863 5862 5862 5861 5861 5860 5860 5860 5859 5859 5858 5858 5858 5857 5857 5857 5857 5856 5856 5856 5856
5873 5875 5876 5878 5879 5879 5877 5875 5874 5873 5871 5870 5869 5868 5868 5867 5866 5866 5865 5865 5864 5864 5863 5862 5862 5861 5861 5860 5859 5859 5859 5858 5857 5857 5856 5856 5855 5855 5855 5854 5854 5854 5853 5853 5853 5852 5852 5852 5851
5872 5874 5874 5875 5876 5876 5874 5873 5872 5870 5869 5867 5866 5865 5864 5864 5862 5863 5863 5862 5862 5861 5859 5857 5858 5858 5857 5856 5855 5855 5855 5854 5853 5853 5852 5851 5851 5851 5851 5850 5850 5849 5849 5849 5848 5848 5847 5847 5847
5870 5872 5873 5873 5872 5873 5871 5870 5869 5868 5867 5866 5864 5863 5861 5860 5859 5860 5860 5860 5859 5857 5857 5855 5854 5854 5853 5852 5851 5851 5850 5850 5849 5848 5848 5847 5847 5846 5846 5846 5845 5845 5844 5844 5843 5843 5843 5843 5843
5869 5869 5869 5869 5868 5869 5868 5868 5867 5866 5865 5864 5862 5861 5859 5859 5858 5858 5857 5857 5856 5854 5853 5850 5851 5850 5849 5848 5847 5847 5846 5845 5845 5844 5843 5843 5842 5842 5841 5841 5841 5840 5840 5839 5839 5838 5838 5838 5837
5867 5867 5867 5866 5866 5865 5865 5865 5864 5863 5863 5861 5859 5857 5856 5856 5856 5855 5855 5854 5853 5851 5850 5848 5848 5846 5845 5844 5843 5842 5842 5841 5840 5839 5839 5838 5838 5838 5837 5837 5836 5835 5835 5834 5833 5833 5833 5832 5831
5865 5865 5865 5864 5863 5863 5862 5862 5861 5860 5860 5858 5856 5855 5854 5854 5853 5852 5851 5851 5850 5848 5847 5845 5844 5842 5841 5839 5838 5837 5837 5836 5836 5835 5834 5833 5833 5833 5832 5831 5831 5830 5830 5829 5828 5828 5827 5826 5825
5862 5862 5862 5861 5861 5861 5860 5860 5859 5858 5857 5855 5854 5853 5851 5851 5850 5850 5849 5847 5846 5844 5843 5841 5840 5838 5837 5835 5834 5833 5832 5831 5831 5830 5829 5829 5828 5828 5827 5827 5826 5825 5824 5824 5823 5822 5821 5820 5819
5859 5860 5859 5859 5859 5859 5859 5858 5857 5855 5854 5852 5851 5850 5849 5848 5847 5846 5845 5844 5843 5841 5839 5837 5835 5834 5833 5831 5830 5828 5827 5826 5825 5824 5824 5824 5823 5822 5822 5821 5821 5820 5819 5818 5817 5816 5815 5814 5813
5857 5857 5858 5858 5858 5857 5859 5857 5855 5853 5852 5850 5849 5848 5846 5845 5844 5843 5842 5840 5839 5837 5836 5834 5832 5830 5828 5826 5824 5823 5821 5820 5819 5819 5818 5818 5817 5817 5817 5816 5815 5814 5813 5812 5811 5810 5808 5807 5806
5855 5856 5857 5857 5856 5856 5856 5854 5852 5850 5850 5848 5847 5845 5844 5842 5841 5840 5839 5838 5836 5834 5832 5830 5828 5826 5824 5821 5819 5817 5815 5813 5812 5812 5812 5812 5812 5812 5811 5811 5810 5809 5808 5807 5805 5804 5802 5801 5800
5856 5856 5855 5855 5855 5854 5852 5851 5849 5848 5847 5846 5844 5842 5840 5839 5838 5837 5836 5834 5833 5831 5829 5827 5824 5822 5819 5817 5814 5812 5810 5808 5806 5806 5806 5806 5807 5806 5806 5806 5805 5804 5803 5801 5800 5798 5796 5795 5794
5854 5853 5853 5854 5853 5852 5850 5848 5848 5846 5845 5844 5842 5840 5838 5837 5835 5834 5833 5831 5829 5827 5825 5823 5821 5818 5815 5812 5810 5808 5806 5804 5803 5802 5802 5802 5802 5801 5801 5800 5799 5798 5797 5795 5794 5792 5791 5789 5788
5851 5852 5852 5853 5851 5850 5849 5848 5846 5845 5843 5841 5840 5838 5836 5834 5832 5831 5830 5828 5826 5824 5822 5819 5817 5814 5811 5809 5806 5804 5803 5801 5800 5798 5798 5797 5797 5796 5795 5794 5793 5792 5791 5789 5788 5786 5785 5783 5781
5850 5851 5851 5851 5850 5849 5848 5847 5844 5843 5842 5840 5838 5836 5834 5832 5830 5828 5827 5825 5823 5821 5818 5816 5814 5811 5808 5806 5803 5801 5799 5797 5796 5795 5794 5793 5792 5791 5790 5789 5788 5787 5785 5784 5782 5780 5779 5777 5776
5850 5850 5849 5849 5848 5848 5848 5845 5843 5841 5839 5838 5836 5834 5832 5829 5827 5825 5824 5822 5820 5818 5816 5813 5810 5808 5805 5803 5800 5798 5796 5794 5792 5791 5790 5788 5787 5786 5785 5784 5783 5781 5780 5778 5777 5775 5773 5771 5770
5848 5848 5847 5847 5846 5845 5845 5844 5842 5840 5838 5836 5834 5832 5830 5827 5825 5822 5821 5819 5817 5815 5812 5810 5808 5805 5803 5800 5798 5795 5793 5790 5789 5787 5786 5784 5783 5782 5780 5779 5778 5776 5775 5773 5772 5770 5767 5765 5764
5846 5846 5846 5845 5844 5843 5842 5842 5841 5838 5836 5834 5832 5830 5828 5826 5823 5821 5819 5817 5814 5812 5810 5808 5805 5803 5800 5798 5795 5792 5789 5787 5785 5784 5782 5781 5779 5777 5776 5774 5773 5772 5770 5768 5767 5765 5762 5760 5758
5845 5845 5844 5843 5842 5842 5841 5840 5840 5837 5835 5832 5830 5828 5827 5824 5822 5820 5817 5815 5813 5810 5808 5805 5802 5799 5797 5794 5792 5789 5787 5784 5782 5780 5778 5776 5775 5773 5771 5770 5768 5767 5765 5764 5762 5760 5757 5755 5753
5843 5843 5843 5842 5841 5840 5838 5837 5836 5833 5832 5831 5829 5827 5825 5823 5820 5818 5815 5813 5810 5808 5805 5803 5800 5797 5794 5791 5789 5787 5784 5781 5779 5776 5774 5772 5770 5768 5767 5766 5764 5762 5761 5759 5757 5755 5752 5749 5747
5841 5841 5841 5840 5838 5838 5838 5835 5832 5831 5830 5829 5827 5825 5823 5820 5818 5815 5813 5810 5808 5805 5803 5800 5797 5795 5792 5790 5787 5784 5781 5778 5775 5773 5771 5769 5766 5764 5763 5762 5760 5758 5756 5754 5752 5750 5747 5744 5741
5839 5839 5839 5837 5836 5835 5836 5834 5831 5829 5828 5827 5825 5823 5821 5818 5816 5813 5811 5808 5806 5803 5800 5797 5795 5792 5789 5786 5784 5781 5778 5775 5773 5770 5768 5765 5763 5761 5759 5758 5756 5754 5752 5750 5747 5745 5742 5739 5736
5836 5836 5835 5834 5834 5833 5833 5833 5828 5826 5826 5825 5823 5820 5819 5816 5813 5811 5808 5806 5803 5801 5798 5795 5792 5789 5786 5783 5780 5777 5775 5772 5770 5767 5765 5762 5760 5758 5756 5754 5752 5750 5747 5745 5743 5740 5737 5734 5731
5833 5833 5832 5832 5831 5831 5830 5831 5825 5824 5823 5822 5820 5818 5816 5813 5811 5808 5806 5803 5801 5798 5795 5792 5789 5786 5783 5780 5777 5774 5771 5769 5766 5763 5761 5759 5756 5754 5752 5750 5748 5745 5743 5740 5738 5735 5732 5729 5726
Wind_Speed
4 4 3 3 2 1 3 4 7 11 12 12 10 11 11 10 12 12 12 11 11 12 12 12 12 12 12 11 11 11 11 11 11 11 11 11 12 12 12 12 12 12 12 12 11 11 11 11 10
5 5 4 4 2 3 5 8 10 13 14 13 12 12 12 12 12 13 13 13 13 13 13 13 13 13 12 13 13 12 11 12 12 13 13 13 13 13 13 13 13 13 14 13 13 12 12 11 11
5 5 5 3 4 6 8 10 11 13 13 14 14 14 13 13 13 14 14 14 14 14 14 14 13 13 12 12 12 13 13 13 13 14 14 14 14 14 14 14 15 14 14 14 13 13 13 13 13
7 7 5 4 6 7 9 11 12 13 14 15 15 16 15 15 15 14 14 15 15 14 14 14 14 14 13 13 13 13 14 15 15 15 15 15 15 15 15 15 16 15 15 15 15 14 14 14 13
7 6 4 4 5 8 11 13 14 14 14 15 16 16 16 15 15 15 15 15 15 15 15 15 15 15 14 15 15 15 15 16 16 16 16 16 16 17 17 16 16 16 16 16 15 15 15 15 15
6 5 5 5 5 10 13 14 14 15 15 15 16 17 16 14 15 16 16 16 16 16 16 15 15 15 16 16 16 16 16 17 17 17 17 16 16 17 17 17 17 18 18 17 16 16 16 16 16
7 7 6 6 8 11 13 15 15 16 14 15 16 17 17 15 15 16 17 17 17 17 17 16 16 16 16 17 18 17 17 17 17 18 17 17 18 18 18 18 18 18 19 19 19 18 17 17 17
7 7 7 8 9 11 14 16 15 16 14 15 15 16 16 15 16 16 17 17 17 17 18 17 17 18 18 18 18 19 19 19 18 18 19 19 19 19 18 18 19 19 20 20 20 20 19 19 18
6 6 6 9 12 13 14 15 16 16 15 14 15 16 16 15 16 16 17 17 17 17 18 18 18 19 19 19 19 19 19 19 19 19 19 20 19 19 19 19 19 19 20 20 20 20 20 20 20
7 7 8 11 13 14 14 14 14 14 14 14 15 16 16 14 15 16 17 18 18 18 18 18 18 19 19 19 20 21 20 20 20 20 20 20 20 20 19 19 20 20 20 20 20 20 21 22 22
8 8 10 12 12 13 13 13 13 14 13 13 15 16 16 15 16 17 17 18 18 18 19 18 18 19 20 20 21 20 20 21 21 21 21 20 19 19 19 19 19 19 20 20 20 21 21 22 22
9 9 11 12 12 12 12 13 12 13 12 13 15 16 15 17 17 17 17 17 18 18 19 20 19 20 20 21 22 21 20 21 21 21 21 20 20 19 19 20 20 20 20 20 21 21 21 22 22
9 9 11 11 12 12 12 12 12 13 13 14 17 18 16 16 17 17 18 17 18 18 19 19 19 19 20 20 20 20 21 21 21 20 20 20 21 20 19 19 20 20 20 20 21 21 21 22 21
7 8 11 11 11 13 13 13 13 13 13 14 15 16 15 16 17 17 17 17 18 19 18 19 19 19 20 21 20 20 21 22 21 21 21 21 21 21 20 19 19 20 21 21 22 23 23 23 23
6 8 9 11 12 13 13 13 15 15 14 15 16 16 16 17 17 17 17 17 18 19 19 19 20 21 21 21 21 22 22 22 21 21 21 22 22 22 21 20 20 21 21 22 23 24 24 24 24
5 7 9 12 14 14 14 14 16 15 15 16 16 16 16 16 16 16 16 17 18 19 20 20 21 22 23 22 22 22 23 23 23 22 22 22 23 22 21 20 20 21 22 22 23 24 24 24 24
5 8 10 13 14 15 15 15 15 16 16 17 17 17 15 15 15 15 16 16 17 18 19 19 21 22 22 22 22 23 23 23 23 22 22 21 21 21 21 21 21 21 22 23 23 23 23 24 24
9 11 12 11 13 16 15 14 15 16 16 16 17 17 16 16 16 16 16 17 17 17 18 19 20 21 21 22 22 22 21 21 21 21 21 21 20 21 21 21 21 22 23 23 23 23 22 23 23
9 10 12 10 12 15 14 14 15 15 17 16 17 18 17 17 17 16 16 16 16 17 18 18 20 21 20 20 20 20 19 19 20 21 20 21 21 21 21 21 22 22 23 22 23 23 23 23 23
8 8 9 10 11 13 14 14 14 14 15 17 18 17 17 17 17 17 17 16 17 17 18 19 20 19 19 19 19 19 19 20 20 19 20 21 21 22 22 22 22 22 22 23 23 23 24 23 23
8 8 9 10 11 12 13 14 15 14 15 16 16 16 17 17 17 17 17 17 17 18 19 19 19 18 18 19 20 19 18 19 20 19 19 20 21 22 22 22 21 21 22 22 23 23 23 23 23
9 9 9 10 12 11 12 14 15 15 15 15 16 16 16 16 16 16 16 16 17 18 19 20 18 18 19 19 19 18 19 19 19 18 19 20 20 20 20 20 20 21 21 22 23 23 24 24 24
9 9 10 11 12 12 12 12 12 14 16 16 16 16 17 16 16 16 16 16 17 18 19 18 17 18 18 18 18 19 19 20 19 18 19 19 18 19 19 20 20 21 22 22 23 22 22 22 23
10 9 10 10 11 13 11 11 11 14 16 16 16 16 17 17 17 16 16 16 17 17 17 17 17 18 18 18 18 19 19 19 18 18 19 18 19 19 19 19 20 21 22 22 22 22 22 22 23
9 9 10 10 9 12 11 11 13 15 15 14 14 15 16 17 16 15 15 16 16 17 17 17 17 18 19 18 18 18 19 19 19 18 19 19 19 19 19 19 20 21 21 21 22 22 23 22 23
9 9 11 12 11 12 13 13 16 14 14 15 16 16 16 16 15 16 16 16 17 17 17 16 16 18 18 18 18 18 19 20 19 19 19 19 19 19 19 19 20 21 21 22 21 22 22 22 22
10 10 10 13 12 12 12 14 17 16 16 16 16 17 17 17 17 16 16 17 17 17 17 17 17 17 18 19 20 19 19 19 18 19 18 18 18 18 18 19 20 20 21 21 21 22 22 22 22
12 12 12 12 12 12 11 12 15 16 17 17 18 17 17 17 17 17 17 17 17 18 18 18 18 19 20 19 20 19 19 19 19 18 18 18 18 18 19 19 20 20 21 21 21 22 22 22 22
12 12 12 13 12 12 12 13 17 16 17 18 18 18 18 17 17 17 17 17 17 18 18 18 18 19 20 20 19 19 20 20 19 19 19 19 19 19 19 19 19 20 20 20 21 21 22 22 23
12 12 13 14 13 12 13 16 17 17 17 18 18 18 18 17 17 17 17 17 18 18 18 18 18 19 19 20 19 20 20 20 20 20 19 19 19 19 19 19 19 19 19 20 20 21 21 22 22
Wind_Direction
233 224 219 213 199 221 251 267 263 269 271 274 280 274 274 274 279 279 281 285 287 285 285 286 278 275 273 269 269 270 269 266 263 264 267 267 265 263 265 265 265 263 262 262 263 263 262 261 261
227 223 222 214 215 244 258 260 267 273 276 277 273 276 277 275 278 279 280 282 287 287 286 286 285 281 278 272 270 270 269 269 267 266 268 270 269 267 267 268 268 267 267 266 265 265 264 263 263
221 222 220 211 229 238 254 259 268 279 280 279 277 277 280 280 280 281 282 284 287 288 288 285 287 284 281 275 271 272 271 272 270 269 269 270 270 269 269 270 270 269 269 267 265 265 265 264 264
220 220 215 224 241 253 264 271 275 281 285 282 281 281 283 282 281 281 282 283 284 285 285 285 283 281 280 278 277 274 273 274 273 272 271 271 271 271 269 269 269 268 268 267 266 265 267 266 264
213 217 222 247 256 265 268 271 279 280 281 283 282 281 282 281 280 281 282 283 283 283 283 283 280 278 280 280 279 278 277 276 274 273 273 273 272 272 271 270 269 269 267 267 267 266 265 265 265
205 210 243 249 264 267 275 276 278 279 278 282 282 282 285 282 281 282 283 284 282 283 283 282 282 283 280 281 282 281 281 279 276 275 274 273 272 275 275 272 271 270 270 269 268 270 270 272 267
213 209 230 244 254 265 271 274 279 279 278 278 281 283 284 287 284 282 282 283 284 283 282 281 283 284 285 283 282 282 283 281 278 275 274 274 275 277 279 275 271 270 269 269 270 271 271 270 268
207 206 217 232 247 257 268 274 279 280 283 282 280 282 282 284 283 282 281 284 286 288 285 281 283 285 286 285 281 281 282 281 280 276 273 274 277 277 277 277 275 273 271 270 270 272 272 273 271
205 216 228 235 247 254 265 274 277 280 285 285 279 282 279 281 283 284 287 287 290 292 290 285 286 286 286 284 280 280 280 281 281 280 278 278 278 278 279 278 277 275 274 273 271 272 272 275 274
218 223 247 253 253 258 267 273 276 280 283 283 282 281 283 281 288 290 291 290 290 290 289 286 288 287 286 285 284 282 281 281 282 282 283 283 282 281 283 281 280 277 276 275 275 275 275 276 275
228 241 249 254 255 261 271 276 277 275 282 280 278 279 283 286 289 291 292 292 290 289 290 288 291 289 285 286 286 285 286 285 283 282 283 285 284 283 285 285 284 282 280 279 280 280 280 278 276
235 255 267 267 268 268 272 280 277 276 281 280 282 287 285 288 290 292 293 293 291 291 292 292 292 292 290 289 286 285 286 285 285 283 285 284 283 284 286 288 288 286 286 284 282 280 279 279 279
230 244 264 274 280 278 277 284 285 282 285 283 283 287 287 287 289 291 292 292 292 292 293 292 294 292 290 291 290 289 286 284 284 282 285 285 286 285 285 287 288 288 288 287 286 284 282 282 282
226 244 260 270 278 284 281 283 285 286 286 286 285 285 286 285 286 289 291 290 290 292 293 291 294 293 292 290 290 289 287 285 282 283 283 285 286 284 285 287 287 287 288 286 285 285 285 284 283
240 253 269 278 281 288 288 284 282 282 288 290 290 287 286 286 287 289 290 290 292 292 295 294 296 295 294 291 290 290 288 286 284 282 282 284 286 284 284 285 287 288 288 287 286 287 286 284 284
247 267 273 279 281 286 287 287 286 284 286 290 291 289 287 287 289 289 290 291 293 293 296 295 295 296 295 294 292 291 290 288 285 281 280 283 285 285 285 286 288 289 290 289 288 287 287 286 286
271 273 270 276 284 288 288 286 287 291 292 293 295 293 291 293 291 291 291 293 294 297 298 299 297 297 298 295 294 294 293 289 285 282 280 282 283 284 285 285 286 289 291 291 291 290 290 289 289
263 268 266 272 277 281 285 289 295 298 300 300 297 296 297 295 294 294 292 293 294 297 299 299 299 300 300 298 297 296 296 292 287 284 282 282 283 285 285 285 288 292 293 293 293 290 291 291 292
259 264 276 280 278 280 290 296 295 298 303 307 303 300 300 300 299 297 294 296 296 299 301 303 303 302 302 302 300 296 295 294 293 290 287 286 285 285 286 288 291 293 295 294 293 291 292 292 293
259 260 276 279 281 291 300 301 305 307 307 308 306 304 301 302 300 300 300 299 299 302 305 307 307 306 306 307 304 299 296 295 295 294 292 291 289 288 288 292 295 294 295 294 294 294 296 295 293
271 272 277 279 288 297 302 305 303 308 307 307 306 307 306 302 301 301 300 298 300 303 306 309 311 310 309 308 308 303 302 301 301 299 297 295 292 290 291 295 295 297 295 295 296 295 295 295 293
265 267 275 284 283 290 295 299 304 307 308 306 306 308 309 302 303 305 305 303 303 305 306 308 309 311 310 312 311 308 306 305 303 300 297 298 295 291 291 294 293 295 297 298 299 298 297 295 293
267 268 276 281 283 284 289 294 300 310 311 308 307 308 309 308 307 304 309 308 307 306 307 308 311 314 313 314 313 310 309 306 304 302 300 298 296 294 294 294 293 296 300 300 301 301 301 298 294
277 275 280 288 286 281 287 293 302 307 310 310 308 308 308 311 312 312 311 312 312 310 310 313 314 315 315 314 315 313 310 308 305 302 301 298 297 297 297 296 297 299 300 300 301 301 302 299 295
271 277 283 287 283 286 293 293 296 302 306 306 308 308 310 313 315 316 314 316 315 313 313 314 312 316 314 311 313 313 313 311 309 305 301 300 299 297 297 297 298 300 301 302 303 302 303 301 299
260 266 279 287 286 292 291 291 293 301 309 309 311 312 312 315 318 319 319 318 316 314 311 313 314 316 316 315 315 313 312 311 309 306 305 303 302 301 302 302 303 304 305 304 304 306 307 306 304
260 264 277 281 284 287 292 298 300 305 309 310 311 312 314 318 320 320 320 319 318 316 314 314 316 316 315 316 316 316 314 315 314 311 309 308 307 305 304 304 305 305 306 306 304 307 308 308 307
264 268 267 271 281 284 290 299 296 305 307 309 312 312 314 317 319 319 320 319 319 320 319 318 318 316 316 316 316 317 316 315 314 312 311 311 312 309 307 306 307 306 305 305 306 307 309 310 310
269 271 274 270 270 279 286 287 292 296 303 307 307 309 311 314 314 315 318 319 320 320 321 321 322 321 319 316 316 316 314 313 311 310 309 309 310 309 307 306 306 305 305 305 307 309 310 313 314
270 271 271 274 273 274 283 285 289 292 297 302 303 306 308 312 312 314 315 316 317 319 319 321 323 323 323 321 318 317 314 312 310 309 308 309 310 309 308 306 306 305 306 308 310 311 313 315 315